Terminal Aerodrome Forecast
Issued by NWS Milwaukee/Sullivan, WI

Home | Current Version | Previous Version | Text Only | Print | Product List | Glossary On
Versions: 1 2 3 4 5 6 7 8 9 10 11 12 13 14 15 16 17 18 19 20 21 22 23 24 25 26 27 28 29 30 31 32 33 34 35 36 37 38 39 40 41 42 43 44 45 46 47 48 49 50
000
FTUS43 KMKX 020141 AAA
TAFMKE
TAF AMD
KMKE 020141Z 0202/0306 20006KT P6SM SCT060 BKN120
     FM021000 VRB05KT 5SM BR SCT060
     FM021300 VRB03KT P6SM SCT035
     FM021800 09004KT P6SM VCTS SCT040CB
     FM030300 00000KT P6SM SCT080=

USA.gov is the U.S. government's official web portal to all federal, state and local government web resources and services.